Tracking 19651 objects as of 23-Apr-2019
HD Live streaming from Space Station
objects crossing your sky now

TIANLIAN 2-01

Track TIANLIAN 2-01 now!
TIANLIAN 2-01 is classified as:


NORAD ID: 44076
Int'l Code: 2019-017A
Perigee: 35,665.2 km
Apogee: 35,922.1 km
Inclination: 3.0 °
Period: 1,436.1 minutes
Semi major axis: 42164 km
RCS: Unknown
Launch date: March 31, 2019
Source: People's Republic of China (PRC)
Launch site: Xichang Space Center, China (XSC)

TIANLIAN 2-01 is a new Chinese communications satellite to provide real-time communications between orbiting satellites and ground control stations.
aabbcc
Your satellite tracking list
Your tracking list is empty




NASA's NSSDC Master Catalog

Two Line Element Set (TLE):
1 44076U 19017A   19112.86549397 -.00000155  00000-0  00000+0 0  9995
2 44076   2.9760 290.5876 0030465 199.3324 112.2901  1.00272210   419
Source of the keplerian elements: AFSPC